Thermal, CA

12:33 AM PDT on April 26, 2017 (GMT -0700)
Desert Resorts Regional

Weather History for KTRM - January, 2013

Change the Weather History Date:

Tuesday, January 22, 2013

  Actual Average Record
Temperature  
Mean Temperature 57 °F 55 °F  
Max Temperature 79 °F 72 °F 84 °F (1968)
Min Temperature 34 °F 38 °F 26 °F (1966)
Degree Days  
Heating Degree Days 8 10  
Month to date heating degree days 317 235  
Since 1 July heating degree days 755 773  
Cooling Degree Days 0 0  
Month to date cooling degree days 0 0  
Year to date cooling degree days 0 0  
Growing Degree Days 7 (Base 50)    
Moisture  
Dew Point 18 °F    
Average Humidity 26    
Maximum Humidity 44    
Minimum Humidity 7    
Precipitation  
Precipitation 0.00 in 0.02 in 0.25 in (2010)
Month to date precipitation T 0.49  
Year to date precipitation T 0.49  
Since 1 July precipitation 2.18  
Snow  
Snow 0.00 in - - ()
Month to date snowfall 0.0  
Year to date snowfall 0.0  
Snow Depth 0.00 in    
Sea Level Pressure  
Sea Level Pressure 30.09 in    
Wind  
Wind Speed 4 mph (NNW)    
Max Wind Speed 10 mph    
Max Gust Speed 12 mph    
Visibility 10 miles    
Events      
T = Trace of Precipitation, MM = Missing Value Source: NWS Daily Summary

Daily Weather History Graph

Daily Weather History Graph

Search for Another Location

Airport or City:

Trip Planner

Search our weather history database for the weather conditions in past years. The results will help you decide how hot, cold, wet, or windy it might be!

Date:

Astronomy

Jan. 22, 2013 Rise Set
Actual Time 6:46 AM PST 5:06 PM PST
Civil Twilight 6:19 AM PST 5:33 PM PST
Nautical Twilight 5:49 AM PST 6:03 PM PST
Astronomical Twilight 5:20 AM PST 6:33 PM PST
Moon 1:34 PM PST (1/22) 3:10 AM PST (1/22)
Length of Visible Light 11h 13m
Length of Day
10h 19m
Waxing Gibbous, 83% of the Moon is Illuminated
Jan 22
Waxing Gibbous
Jan 26
Full
Feb 3
Last Quarter
Feb 9
New
Feb 17
First Quarter

Hourly Weather History & Observations

Time (PST) Temp. Windchill Dew Point Humidity Pressure Visibility Wind Dir Wind Speed Gust Speed Precip Events Conditions
12:52 AM 45.0 °F 41.2 °F 15.1 °F 30% 30.09 in 10.0 mi NNW 6.9 mph - N/A   Clear
1:52 AM 41.0 °F 37.1 °F 14.0 °F 33% 30.10 in 10.0 mi NNW 5.8 mph - N/A   Clear
2:52 AM 43.0 °F 39.5 °F 12.0 °F 28% 30.09 in 10.0 mi NNW 5.8 mph - N/A   Clear
3:52 AM 42.1 °F 37.7 °F 14.0 °F 32% 30.09 in 10.0 mi North 6.9 mph - N/A   Clear
4:52 AM 35.1 °F 31.0 °F 15.1 °F 44% 30.10 in 10.0 mi NNW 4.6 mph - N/A   Clear
5:52 AM 45.0 °F 41.2 °F 14.0 °F 29% 30.10 in 10.0 mi North 6.9 mph - N/A   Clear
6:52 AM 39.0 °F 34.0 °F 15.1 °F 38% 30.12 in 10.0 mi NNW 6.9 mph - N/A   Clear
7:52 AM 44.1 °F - 19.0 °F 37% 30.12 in 10.0 mi Calm Calm - N/A   Clear
8:52 AM 60.1 °F - 16.0 °F 18% 30.14 in 10.0 mi Calm Calm - N/A   Clear
9:52 AM 66.0 °F - 18.0 °F 16% 30.15 in 10.0 mi NW 4.6 mph - N/A   Clear
10:52 AM 73.0 °F - 10.9 °F 9% 30.14 in 10.0 mi Calm Calm - N/A   Clear
11:52 AM 77.0 °F - 9.0 °F 7% 30.10 in 10.0 mi Calm Calm - N/A   Clear
12:52 PM 78.1 °F - 10.0 °F 7% 30.07 in 10.0 mi Variable 3.5 mph - N/A   Clear
1:52 PM 79.0 °F - 12.9 °F 8% 30.04 in 10.0 mi Calm Calm - N/A   Clear
2:52 PM 77.0 °F - 18.0 °F 11% 30.04 in 10.0 mi SE 5.8 mph - N/A   Clear
3:52 PM 73.0 °F - 18.0 °F 12% 30.05 in 10.0 mi SE 5.8 mph - N/A   Clear
4:52 PM 64.9 °F - 21.9 °F 19% 30.05 in 10.0 mi WSW 5.8 mph - N/A   Clear
5:52 PM 57.9 °F - 21.0 °F 24% 30.05 in 10.0 mi SW 3.5 mph - N/A   Clear
6:52 PM 55.9 °F - 21.9 °F 27% 30.06 in 10.0 mi Calm Calm - N/A   Clear
7:52 PM 54.0 °F - 27.0 °F 35% 30.07 in 10.0 mi NNE 3.5 mph - N/A   Clear
8:52 PM 50.0 °F - 26.1 °F 39% 30.08 in 10.0 mi WNW 5.8 mph - N/A   Clear
9:52 PM 52.0 °F - 25.0 °F 35% 30.09 in 10.0 mi North 4.6 mph - N/A   Clear
10:52 PM 44.1 °F - 26.1 °F 49% 30.10 in 10.0 mi Calm Calm - N/A   Clear
11:52 PM 52.0 °F - 23.0 °F 32% 30.10 in 10.0 mi NNW 6.9 mph - N/A   Clear